User: anonymous   Login
Location: Cosy Dell
(34.2789°N, 117.4537°W)
Time: 17:11:36
(UTC+00:00)
Language:

Cosmos 2221 - Orbit

View from above orbital plane
View from above orbital plane
View from above satellite
View from above satellite

Ground track
Ground track

The orbit data is extracted from the following two-line orbital elements,

1 22236U 92080A   20270.76809169 +.00000189 +00000-0 +17871-4 0  9997
2 22236 082.5114 007.9175 0016276 350.7438 009.3477 14.87949488484344
Epoch (UTC): 26 September 2020 18:26:03
Eccentricity: 0.0016276
inclination: 82.5114°
perigee height: 593 km
apogee height: 616 km
right ascension of ascending node: 7.9175°
argument of perigee: 350.7438°
revolutions per day: 14.87949488
mean anomaly at epoch: 9.3477°
orbit number at epoch: 48434

The dashed part of the orbit path shows where the satellite is in the earth's shadow,  

DLR